EGHI

Details ICAO EGHI (SOU)
Name Southampton
Region United Kingdom
Timezone Europe/London (UTC+1.0)
Plans Departing 1138
Arriving 824
Stats Elevation 41 ft / 12 m (AMSL)
Location 50.950300° -1.356790°
Runways 1
Magnetic Variation 0.554° W
Sunrise 2019-09-19 05:47:30 UTC / 2019-09-19 06:47:30 Local
Sunset 2019-09-19 18:14:01 UTC / 2019-09-19 19:14:01 Local
Advertisement - Login to hide

Runways

ID Width Length Bearing (true/mag) Surface Threshold Overrun Markings Lighting
02 121 ft / 37 m 5,651 ft / 1,722 m 19.36° / 19.91° ASPHALT 239 ft / 73 m 66 ft / 20 m UK-PREC-APP CENTERLINE EDGE THRESHOLD MALS
20 121 ft / 37 m 5,651 ft / 1,722 m 199.36° / 199.92° ASPHALT 151 ft / 46 m 0 ft / 0 m UK-PREC-APP CENTERLINE EDGE THRESHOLD MALS

Approach Navaids

Runway Type Ident Frequency Range Bearing (true/mag) Slope Elevation
20 DME ISN 110.75 MHz 18 nm / 33 km - - 54 ft / 16 m (AMSL)
20 LOC-ILS ISN 110.75 MHz 18 nm / 33 km 199.35° / 199.90° - 41 ft / 12 m (AMSL)
20 GS ISN 110.75 MHz 18 nm / 33 km 199.35° / 199.90° 3.10° 41 ft / 12 m (AMSL)

Map

Weather


0- 5 10 15 20 25 30 35+ Temperature / °C

Clouds and Precipitation
Forecast for 2019-09-19 12:00 UTC. Updated 5 hours ago

Ground ~20,000 ft ~40,000 ft Winds

METAR

EGHI 191420Z 18006KT 100V240 9999 FEW048 20/10 Q1030

TAF

Not found

Frequencies

Tower 118.20 MHz Southampton Tower
Tower 118.35 MHz Southampton Info
Warning: Do not use this data for real-world aviation or navigation. No guarantee of current accuracy is given.